| time (UTC) | temp F | wind direction | speed knots | gust knots | rain 1hr in | rain 24hr in | rain mn in | humidity % | barometer mb |
| 20260506143233 | 58 | 62 | 2.6 | 9.6 | 0.01 | 0.01 | 0.01 | 93 | 1011.8 |
| 20260506143104 | 57 | 73 | 0.9 | 9.6 | 0.01 | 0.01 | 0.01 | 93 | 1011.9 |
| 20260506142334 | 58 | 73 | 2.6 | 7.0 | 0.01 | 0.01 | 0.01 | 93 | 1011.9 |
| 20260506141507 | 58 | 115 | 0.9 | 7.8 | 0.01 | 0.01 | 0.01 | 93 | 1012.0 |
| 20260506141433 | 59 | 52 | 3.5 | 7.8 | 0.01 | 0.01 | 0.01 | 93 | 1011.8 |
| 20260506140533 | 59 | 48 | 3.5 | 8.7 | 0.01 | 0.01 | 0.01 | 93 | 1011.5 |
| 20260506140107 | 58 | 51 | 2.6 | 13.0 | 0.01 | 0.01 | 0.01 | 93 | 1011.6 |
| 20260506134732 | 59 | 24 | 3.5 | 8.7 | 0.00 | 0.00 | 0.00 | 93 | 1011.5 |
| 20260506134509 | 59 | 355 | 1.7 | 9.6 | 0.00 | 0.00 | 0.00 | 93 | 1011.7 |
| 20260506133104 | 60 | 48 | 3.5 | 11.3 | 0.00 | 0.00 | 0.00 | 92 | 1011.5 |
| 20260506132933 | 60 | 27 | 4.3 | 11.3 | 0.00 | 0.00 | 0.00 | 92 | 1011.5 |
| 20260506132033 | 61 | 20 | 2.6 | 7.8 | 0.00 | 0.00 | 0.00 | 93 | 1011.2 |
| 20260506131603 | 61 | 337 | 1.7 | 7.0 | 0.00 | 0.00 | 0.00 | 93 | 1011.1 |
| 20260506131132 | 62 | 29 | 2.6 | 6.1 | 0.00 | 0.00 | 0.00 | 92 | 1010.7 |
| 20260506130005 | 62 | 11 | 1.7 | 6.1 | 0.00 | 0.00 | 0.00 | 92 | 1010.7 |
| 20260506125332 | 63 | 27 | 1.7 | 4.3 | 0.00 | 0.00 | 0.00 | 92 | 1010.9 |
| 20260506124503 | 63 | 44 | 1.7 | 5.2 | 0.00 | 0.00 | 0.00 | 91 | 1010.6 |
| 20260506124433 | 63 | 38 | 2.6 | 5.2 | 0.00 | 0.00 | 0.00 | 91 | 1010.6 |
| 20260506123533 | 64 | 28 | 1.7 | 6.1 | 0.00 | 0.00 | 0.00 | 91 | 1010.2 |
| 20260506123004 | 63 | 335 | 0.9 | 4.3 | 0.00 | 0.00 | 0.00 | 91 | 1010.2 |
| 20260506122633 | 64 | 86 | 0.0 | 2.6 | 0.00 | 0.00 | 0.00 | 90 | 1010.2 |
| 20260506121732 | 64 | 318 | 0.0 | 1.7 | 0.00 | 0.00 | 0.00 | 89 | 1010.0 |
| 20260506121505 | 63 | 318 | 0.0 | 2.6 | 0.00 | 0.00 | 0.00 | 89 | 1010.0 |
| 20260506120016 | 63 | 292 | 0.0 | 0.9 | 0.00 | 0.00 | 0.00 | 88 | 1009.5 |
| 20260506115933 | 64 | 299 | 0.9 | 2.6 | 0.00 | 0.00 | 0.00 | 88 | 1009.4 |
| 20260506115033 | 64 | 306 | 1.7 | 4.3 | 0.00 | 0.00 | 0.00 | 88 | 1009.2 |
| 20260506114614 | 64 | 304 | 1.7 | 3.5 | 0.00 | 0.00 | 0.00 | 88 | 1009.2 |
| 20260506114132 | 64 | 316 | 1.7 | 3.5 | 0.00 | 0.00 | 0.00 | 88 | 1009.2 |
| 20260506113232 | 64 | 333 | 0.0 | 2.6 | 0.00 | 0.00 | 0.00 | 88 | 1008.7 |
| 20260506113023 | 64 | 333 | 0.0 | 1.7 | 0.00 | 0.00 | 0.00 | 88 | 1008.7 |
| 20260506112332 | 64 | 317 | 0.9 | 2.6 | 0.00 | 0.00 | 0.00 | 88 | 1008.7 |
| 20260506111604 | 64 | 306 | 0.0 | 3.5 | 0.00 | 0.00 | 0.00 | 88 | 1008.7 |
| 20260506111432 | 64 | 278 | 0.9 | 3.5 | 0.00 | 0.00 | 0.00 | 88 | 1008.6 |
| 20260506110006 | 64 | 166 | 0.0 | 0.9 | 0.00 | 0.00 | 0.00 | 88 | 1008.1 |
| 20260506105632 | 64 | 166 | 0.0 | 0.9 | 0.00 | 0.00 | 0.00 | 89 | 1008.2 |
| 20260506104732 | 65 | 166 | 0.0 | 0.9 | 0.00 | 0.00 | 0.00 | 89 | 1008.1 |
| 20260506104503 | 64 | 166 | 0.0 | 1.7 | 0.00 | 0.00 | 0.00 | 88 | 1008.2 |
| 20260506103832 | 65 | 176 | 0.9 | 1.7 | 0.00 | 0.00 | 0.00 | 89 | 1008.0 |
| 20260506103104 | 64 | 316 | 0.0 | 1.7 | 0.00 | 0.00 | 0.00 | 88 | 1007.9 |
| 20260506102932 | 65 | 316 | 0.0 | 0.9 | 0.00 | 0.00 | 0.00 | 88 | 1007.8 |
| 20260506102034 | 65 | 316 | 0.0 | 1.7 | 0.00 | 0.00 | 0.00 | 87 | 1007.6 |
| 20260506101606 | 64 | 316 | 0.0 | 1.7 | 0.00 | 0.00 | 0.00 | 87 | 1007.6 |
| 20260506101132 | 65 | 316 | 0.0 | 0.9 | 0.00 | 0.00 | 0.00 | 87 | 1007.6 |
| 20260506100232 | 65 | 274 | 0.0 | 0.9 | 0.00 | 0.00 | 0.00 | 87 | 1007.5 |
| 20260506100104 | 65 | 316 | 0.0 | 1.7 | 0.00 | 0.00 | 0.00 | 87 | 1007.5 |
| 20260506095332 | 65 | 209 | 0.0 | 2.6 | 0.00 | 0.00 | 0.00 | 87 | 1007.6 |
| 20260506094506 | 65 | 316 | 0.0 | 0.9 | 0.00 | 0.00 | 0.00 | 86 | 1007.4 |
| 20260506094432 | 65 | 316 | 0.0 | 0.9 | 0.00 | 0.00 | 0.00 | 86 | 1007.3 |
| 20260506093003 | 65 | 316 | 0.0 | 1.7 | 0.00 | 0.00 | 0.00 | 86 | 1007.5 |
| 20260506092632 | 66 | 316 | 0.0 | 1.7 | 0.00 | 0.00 | 0.00 | 86 | 1007.4 |
| 20260506091732 | 66 | 0 | 0.0 | 0.0 | 0.00 | 0.00 | 0.00 | 86 | 1007.2 |
| 20260506091603 | 65 | 316 | 0.0 | 0.0 | 0.00 | 0.00 | 0.00 | 86 | 1007.1 |
| 20260506090832 | 66 | 316 | 0.0 | 0.9 | 0.00 | 0.00 | 0.00 | 85 | 1007.0 |
| 20260506090005 | 65 | 316 | 0.0 | 1.7 | 0.00 | 0.00 | 0.00 | 85 | 1007.0 |
| 20260506085932 | 66 | 316 | 0.0 | 1.7 | 0.00 | 0.00 | 0.00 | 85 | 1007.0 |
| 20260506085032 | 66 | 358 | 0.0 | 1.7 | 0.00 | 0.00 | 0.00 | 85 | 1006.8 |
| 20260506084609 | 66 | 311 | 0.0 | 1.7 | 0.00 | 0.00 | 0.00 | 84 | 1006.8 |
| 20260506084132 | 66 | 249 | 0.0 | 1.7 | 0.00 | 0.00 | 0.00 | 84 | 1006.8 |
| 20260506083232 | 66 | 248 | 0.0 | 2.6 | 0.00 | 0.00 | 0.00 | 83 | 1006.6 |
| 20260506083103 | 66 | 248 | 0.0 | 2.6 | 0.00 | 0.00 | 0.00 | 83 | 1006.7 |
| 20260506082332 | 66 | 299 | 0.9 | 3.5 | 0.00 | 0.00 | 0.00 | 83 | 1006.6 |
| 20260506081503 | 66 | 263 | 0.0 | 3.5 | 0.00 | 0.00 | 0.00 | 83 | 1006.6 |
| 20260506080532 | 67 | 312 | 2.6 | 7.0 | 0.00 | 0.00 | 0.00 | 82 | 1006.6 |
| 20260506080108 | 67 | 280 | 1.7 | 7.0 | 0.00 | 0.00 | 0.00 | 82 | 1006.6 |
| 20260506073103 | 71 | 306 | 2.6 | 10.4 | 0.00 | 0.00 | 0.00 | 83 | 1006.1 |
| 20260506071607 | 72 | 198 | 0.9 | 3.5 | 0.00 | 0.00 | 0.00 | 85 | 1005.8 |
| 20260506071132 | 73 | 228 | 0.9 | 3.5 | 0.00 | 0.00 | 0.00 | 86 | 1005.8 |
| 20260506070232 | 73 | 228 | 0.9 | 2.6 | 0.00 | 0.00 | 0.00 | 87 | 1005.5 |
| 20260506061732 | 75 | 154 | 0.0 | 1.7 | 0.00 | 0.00 | 0.00 | 88 | 1005.3 |
| 20260506061604 | 74 | 155 | 0.0 | 1.7 | 0.00 | 0.00 | 0.00 | 88 | 1005.2 |
| 20260506050532 | 74 | 177 | 1.7 | 3.5 | 0.00 | 0.00 | 0.00 | 88 | 1005.1 |
| 20260506050108 | 74 | 160 | 0.9 | 3.5 | 0.00 | 0.00 | 0.00 | 88 | 1005.0 |
| 20260506044604 | 74 | 187 | 0.0 | 0.9 | 0.00 | 0.00 | 0.00 | 87 | 1005.1 |
| 20260506043832 | 75 | 188 | 0.0 | 1.7 | 0.00 | 0.00 | 0.00 | 87 | 1005.1 |
| 20260506043005 | 74 | 187 | 0.0 | 1.7 | 0.00 | 0.00 | 0.00 | 87 | 1005.0 |
| 20260506042932 | 74 | 241 | 0.0 | 1.7 | 0.00 | 0.00 | 0.00 | 87 | 1005.0 |
| 20260506042032 | 74 | 190 | 0.9 | 3.5 | 0.00 | 0.00 | 0.00 | 87 | 1005.3 |
| 20260506041508 | 74 | 185 | 0.0 | 3.5 | 0.00 | 0.00 | 0.00 | 87 | 1004.4 |
| 20260506041132 | 75 | 149 | 0.0 | 3.5 | 0.00 | 0.00 | 0.00 | 87 | 1004.5 |
| 20260506040232 | 75 | 184 | 0.0 | 1.7 | 0.00 | 0.00 | 0.00 | 87 | 1005.1 |
| 20260506040002 | 74 | 183 | 0.0 | 1.7 | 0.00 | 0.00 | 0.00 | 87 | 1005.1 |
| 20260506035332 | 75 | 194 | 0.0 | 2.6 | 0.00 | 0.00 | 0.00 | 87 | 1005.1 |
| 20260506034517 | 74 | 183 | 0.0 | 1.7 | 0.00 | 0.00 | 0.00 | 87 | 1005.2 |
| 20260506034432 | 75 | 165 | 0.0 | 1.7 | 0.00 | 0.00 | 0.00 | 87 | 1005.1 |
| 20260506033532 | 75 | 151 | 0.0 | 0.9 | 0.00 | 0.00 | 0.00 | 86 | 1004.7 |
| 20260506033105 | 75 | 151 | 0.0 | 0.9 | 0.00 | 0.00 | 0.00 | 86 | 1004.3 |
| 20260506032632 | 75 | 151 | 0.0 | 1.7 | 0.00 | 0.00 | 0.00 | 85 | 1004.6 |
| 20260506031732 | 75 | 151 | 0.0 | 1.7 | 0.00 | 0.00 | 0.00 | 85 | 1004.7 |
| 20260506031609 | 75 | 151 | 0.0 | 1.7 | 0.00 | 0.00 | 0.00 | 85 | 1004.7 |
| 20260506030832 | 76 | 170 | 0.0 | 0.9 | 0.00 | 0.00 | 0.00 | 85 | 1004.6 |
| 20260506030104 | 75 | 215 | 0.0 | 0.9 | 0.00 | 0.00 | 0.00 | 85 | 1004.6 |
| 20260506025032 | 76 | 212 | 0.0 | 1.7 | 0.00 | 0.00 | 0.00 | 84 | 1004.6 |
| 20260506024510 | 76 | 192 | 0.0 | 0.9 | 0.00 | 0.00 | 0.00 | 84 | 1004.0 |
| 20260506024132 | 76 | 193 | 0.0 | 0.9 | 0.00 | 0.00 | 0.00 | 84 | 1003.8 |
| 20260506023232 | 76 | 193 | 0.0 | 1.7 | 0.00 | 0.00 | 0.00 | 83 | 1004.0 |
| 20260506023102 | 76 | 192 | 0.0 | 1.7 | 0.00 | 0.00 | 0.00 | 83 | 1004.0 |
| 20260506022332 | 76 | 193 | 0.0 | 1.7 | 0.00 | 0.00 | 0.00 | 83 | 1004.0 |
| 20260506021604 | 76 | 192 | 0.0 | 3.5 | 0.00 | 0.00 | 0.00 | 83 | 1003.9 |
| 20260506021432 | 76 | 184 | 1.7 | 3.5 | 0.00 | 0.00 | 0.00 | 83 | 1003.9 |
| 20260506020008 | 76 | 188 | 1.7 | 4.3 | 0.00 | 0.00 | 0.00 | 84 | 1003.9 |
| 20260506015632 | 76 | 179 | 1.7 | 5.2 | 0.00 | 0.00 | 0.00 | 83 | 1003.9 |
| 20260506014732 | 77 | 156 | 0.9 | 3.5 | 0.00 | 0.00 | 0.00 | 83 | 1003.8 |
| 20260506014602 | 76 | 180 | 0.9 | 2.6 | 0.00 | 0.00 | 0.00 | 83 | 1003.7 |
| 20260506013832 | 77 | 157 | 0.0 | 1.7 | 0.00 | 0.00 | 0.00 | 82 | 1003.7 |
| 20260506013111 | 77 | 157 | 0.0 | 2.6 | 0.00 | 0.00 | 0.00 | 82 | 1003.9 |
| 20260506012932 | 78 | 166 | 0.9 | 2.6 | 0.00 | 0.00 | 0.00 | 82 | 1004.0 |
| 20260506011611 | 78 | 229 | 0.0 | 0.0 | 0.00 | 0.00 | 0.00 | 81 | 1003.7 |
| 20260506010232 | 79 | 0 | 0.0 | 0.0 | 0.00 | 0.00 | 0.00 | 80 | 1003.9 |
| 20260506010010 | 79 | 229 | 0.0 | 0.0 | 0.00 | 0.00 | 0.00 | 79 | 1003.8 |
| 20260506005332 | 79 | 235 | 0.0 | 1.7 | 0.00 | 0.00 | 0.00 | 78 | 1003.8 |
| 20260506004504 | 79 | 244 | 0.0 | 1.7 | 0.00 | 0.00 | 0.00 | 78 | 1003.7 |
| 20260506004432 | 80 | 215 | 0.0 | 1.7 | 0.00 | 0.00 | 0.00 | 78 | 1003.6 |
| 20260506003532 | 80 | 134 | 0.0 | 0.9 | 0.00 | 0.00 | 0.00 | 78 | 1003.1 |
| 20260506003105 | 80 | 134 | 0.0 | 0.0 | 0.00 | 0.00 | 0.00 | 78 | 1003.2 |
| 20260506002632 | 81 | 134 | 0.0 | 0.9 | 0.00 | 0.00 | 0.00 | 76 | 1003.4 |
| 20260506001732 | 81 | 134 | 0.0 | 1.7 | 0.00 | 0.00 | 0.00 | 76 | 1003.2 |
| 20260506001505 | 80 | 134 | 0.0 | 1.7 | 0.00 | 0.00 | 0.00 | 75 | 1003.2 |
| 20260506000832 | 81 | 154 | 0.0 | 0.9 | 0.00 | 0.00 | 0.00 | 75 | 1003.5 |
| 20260506000005 | 81 | 173 | 0.0 | 1.7 | 0.00 | 0.00 | 0.00 | 75 | 1003.4 |
| 20260505235932 | 81 | 200 | 0.0 | 1.7 | 0.00 | 0.00 | 0.00 | 75 | 1003.5 |
| 20260505235032 | 81 | 183 | 1.7 | 3.5 | 0.00 | 0.00 | 0.00 | 74 | 1003.5 |
| 20260505234507 | 81 | 213 | 0.9 | 5.2 | 0.00 | 0.00 | 0.00 | 73 | 1003.4 |
| 20260505234132 | 82 | 184 | 2.6 | 5.2 | 0.00 | 0.00 | 0.00 | 73 | 1003.3 |
| 20260505233232 | 82 | 175 | 2.6 | 6.1 | 0.00 | 0.00 | 0.00 | 73 | 1003.0 |
| 20260505233004 | 81 | 188 | 1.7 | 6.1 | 0.00 | 0.00 | 0.00 | 73 | 1003.1 |
| 20260505232332 | 82 | 185 | 2.6 | 7.8 | 0.00 | 0.00 | 0.00 | 72 | 1003.0 |
| 20260505231504 | 82 | 200 | 0.9 | 3.5 | 0.00 | 0.00 | 0.00 | 73 | 1003.0 |
| 20260505231432 | 82 | 183 | 1.7 | 3.5 | 0.00 | 0.00 | 0.00 | 73 | 1003.0 |
| 20260505230532 | 83 | 187 | 0.9 | 4.3 | 0.00 | 0.00 | 0.00 | 72 | 1002.9 |
| 20260505230007 | 83 | 184 | 0.9 | 5.2 | 0.00 | 0.00 | 0.00 | 72 | 1002.9 |
| 20260505225632 | 83 | 187 | 0.0 | 1.7 | 0.00 | 0.00 | 0.00 | 72 | 1002.9 |
| 20260505224732 | 83 | 177 | 0.9 | 3.5 | 0.00 | 0.00 | 0.00 | 71 | 1003.0 |
| 20260505224509 | 83 | 212 | 0.0 | 3.5 | 0.00 | 0.00 | 0.00 | 71 | 1002.9 |
| 20260505223832 | 83 | 184 | 0.0 | 0.9 | 0.00 | 0.00 | 0.00 | 72 | 1003.0 |
| 20260505223004 | 83 | 239 | 0.0 | 2.6 | 0.00 | 0.00 | 0.00 | 71 | 1003.0 |
| 20260505222932 | 83 | 195 | 0.0 | 2.6 | 0.00 | 0.00 | 0.00 | 70 | 1002.9 |
| 20260505222032 | 83 | 191 | 0.9 | 2.6 | 0.00 | 0.00 | 0.00 | 71 | 1002.8 |
| 20260505221502 | 83 | 180 | 0.0 | 5.2 | 0.00 | 0.00 | 0.00 | 71 | 1002.9 |
| 20260505221132 | 83 | 193 | 1.7 | 5.2 | 0.00 | 0.00 | 0.00 | 71 | 1002.9 |
| 20260505220232 | 83 | 195 | 2.6 | 5.2 | 0.00 | 0.00 | 0.00 | 70 | 1003.1 |
| 20260505220003 | 83 | 193 | 1.7 | 7.8 | 0.00 | 0.00 | 0.00 | 70 | 1003.2 |
| 20260505215332 | 83 | 211 | 2.6 | 8.7 | 0.00 | 0.00 | 0.00 | 70 | 1003.4 |
| 20260505214606 | 83 | 209 | 2.6 | 7.8 | 0.00 | 0.00 | 0.00 | 71 | 1003.5 |
| 20260505214432 | 83 | 203 | 2.6 | 5.2 | 0.00 | 0.00 | 0.00 | 71 | 1003.5 |
| 20260505213532 | 83 | 190 | 1.7 | 5.2 | 0.00 | 0.00 | 0.00 | 71 | 1003.2 |
| 20260505213103 | 82 | 207 | 1.7 | 4.3 | 0.00 | 0.00 | 0.00 | 70 | 1003.3 |
| 20260505212632 | 83 | 189 | 1.7 | 6.1 | 0.00 | 0.00 | 0.00 | 71 | 1003.3 |
| 20260505211605 | 82 | 247 | 0.9 | 7.8 | 0.00 | 0.00 | 0.00 | 71 | 1003.4 |
| 20260505210831 | 82 | 177 | 2.6 | 8.7 | 0.00 | 0.00 | 0.00 | 72 | 1003.5 |
| 20260505210004 | 81 | 170 | 0.9 | 6.1 | 0.00 | 0.00 | 0.00 | 75 | 1003.4 |
| 20260505205932 | 82 | 179 | 2.6 | 7.0 | 0.00 | 0.00 | 0.00 | 75 | 1003.3 |
| 20260505205032 | 81 | 169 | 3.5 | 7.8 | 0.00 | 0.00 | 0.00 | 72 | 1003.1 |
| 20260505204506 | 81 | 200 | 3.5 | 6.1 | 0.00 | 0.00 | 0.00 | 71 | 1003.4 |
| 20260505204132 | 82 | 186 | 3.5 | 7.0 | 0.00 | 0.00 | 0.00 | 71 | 1003.5 |
| 20260505203232 | 82 | 189 | 2.6 | 7.0 | 0.00 | 0.00 | 0.00 | 70 | 1003.5 |
| 20260505203005 | 81 | 237 | 1.7 | 5.2 | 0.00 | 0.00 | 0.00 | 69 | 1003.5 |
| 20260505202332 | 82 | 175 | 4.3 | 7.8 | 0.00 | 0.00 | 0.00 | 70 | 1003.7 |
| 20260505201508 | 82 | 194 | 4.3 | 9.6 | 0.00 | 0.00 | 0.00 | 69 | 1003.6 |
| 20260505201432 | 82 | 185 | 5.2 | 10.4 | 0.00 | 0.00 | 0.00 | 71 | 1003.6 |
| 20260505200531 | 83 | 177 | 5.2 | 9.6 | 0.00 | 0.00 | 0.00 | 69 | 1003.5 |
| 20260505200011 | 83 | 158 | 5.2 | 9.6 | 0.00 | 0.00 | 0.00 | 70 | 1003.6 |
| 20260505194732 | 83 | 174 | 3.5 | 9.6 | 0.00 | 0.00 | 0.00 | 71 | 1003.7 |
| 20260505194615 | 82 | 170 | 4.3 | 7.0 | 0.00 | 0.00 | 0.00 | 73 | 1003.7 |
| 20260505193832 | 81 | 171 | 4.3 | 9.6 | 0.00 | 0.00 | 0.00 | 75 | 1004.0 |
| 20260505193105 | 80 | 118 | 4.3 | 9.6 | 0.00 | 0.00 | 0.00 | 75 | 1004.3 |
| 20260505192931 | 80 | 178 | 4.3 | 9.6 | 0.00 | 0.00 | 0.00 | 76 | 1004.2 |
| 20260505192031 | 80 | 175 | 4.3 | 10.4 | 0.00 | 0.00 | 0.00 | 76 | 1004.2 |
| 20260505191507 | 79 | 170 | 2.6 | 10.4 | 0.00 | 0.00 | 0.00 | 77 | 1004.3 |
| 20260505191132 | 80 | 173 | 5.2 | 9.6 | 0.00 | 0.00 | 0.00 | 76 | 1004.0 |
| 20260505190231 | 79 | 177 | 4.3 | 9.6 | 0.00 | 0.00 | 0.00 | 76 | 1004.4 |
| 20260505190005 | 79 | 185 | 4.3 | 9.6 | 0.00 | 0.00 | 0.00 | 77 | 1004.3 |
| 20260505185331 | 79 | 166 | 4.3 | 7.0 | 0.00 | 0.00 | 0.00 | 76 | 1003.9 |
| 20260505184608 | 79 | 171 | 4.3 | 10.4 | 0.00 | 0.00 | 0.00 | 76 | 1003.6 |
| 20260505184432 | 80 | 173 | 6.1 | 10.4 | 0.00 | 0.00 | 0.00 | 75 | 1003.7 |
| 20260505183531 | 79 | 178 | 6.1 | 13.9 | 0.00 | 0.00 | 0.00 | 77 | 1003.5 |
| 20260505183110 | 78 | 178 | 7.0 | 12.2 | 0.00 | 0.00 | 0.00 | 78 | 1003.7 |
| 20260505182631 | 77 | 170 | 5.2 | 10.4 | 0.00 | 0.00 | 0.00 | 81 | 1003.7 |
| 20260505181732 | 76 | 169 | 5.2 | 7.8 | 0.00 | 0.00 | 0.00 | 81 | 1004.6 |
| 20260505181607 | 76 | 162 | 4.3 | 11.3 | 0.00 | 0.00 | 0.00 | 80 | 1004.7 |
| 20260505180832 | 76 | 169 | 5.2 | 8.7 | 0.00 | 0.00 | 0.00 | 82 | 1004.8 |
| 20260505180004 | 75 | 161 | 5.2 | 9.6 | 0.00 | 0.00 | 0.00 | 82 | 1004.8 |
| 20260505175932 | 76 | 175 | 5.2 | 9.6 | 0.00 | 0.00 | 0.00 | 82 | 1004.8 |
| 20260505175031 | 75 | 167 | 5.2 | 9.6 | 0.00 | 0.00 | 0.00 | 82 | 1004.9 |
| 20260505174504 | 75 | 169 | 3.5 | 9.6 | 0.00 | 0.00 | 0.00 | 83 | 1004.9 |
| 20260505174131 | 75 | 177 | 4.3 | 9.6 | 0.00 | 0.00 | 0.00 | 83 | 1004.8 |
| 20260505173231 | 74 | 179 | 5.2 | 10.4 | 0.00 | 0.00 | 0.00 | 84 | 1004.8 |
| 20260505173030 | 74 | 196 | 4.3 | 10.4 | 0.00 | 0.00 | 0.00 | 83 | 1004.8 |
| 20260505172331 | 74 | 175 | 4.3 | 8.7 | 0.00 | 0.00 | 0.00 | 84 | 1004.7 |
| 20260505171504 | 73 | 194 | 4.3 | 7.8 | 0.00 | 0.00 | 0.00 | 85 | 1004.9 |
| 20260505171431 | 74 | 172 | 5.2 | 7.8 | 0.00 | 0.00 | 0.00 | 85 | 1004.9 |
| 20260505170532 | 73 | 174 | 5.2 | 9.6 | 0.00 | 0.00 | 0.00 | 85 | 1004.9 |
| 20260505170004 | 72 | 183 | 4.3 | 7.8 | 0.00 | 0.00 | 0.00 | 86 | 1005.0 |
| 20260505165632 | 73 | 182 | 5.2 | 10.4 | 0.00 | 0.00 | 0.00 | 85 | 1004.9 |
| 20260505164732 | 73 | 161 | 5.2 | 8.7 | 0.00 | 0.00 | 0.00 | 86 | 1005.0 |
| 20260505164510 | 72 | 161 | 5.2 | 8.7 | 0.00 | 0.00 | 0.00 | 87 | 1005.0 |
| 20260505163832 | 72 | 178 | 5.2 | 8.7 | 0.00 | 0.00 | 0.00 | 87 | 1005.1 |
| 20260505163106 | 72 | 200 | 3.5 | 9.6 | 0.00 | 0.00 | 0.00 | 87 | 1005.1 |
| 20260505162931 | 72 | 168 | 5.2 | 9.6 | 0.00 | 0.00 | 0.00 | 87 | 1004.8 |
| 20260505162032 | 72 | 174 | 5.2 | 9.6 | 0.00 | 0.00 | 0.00 | 88 | 1004.9 |
| 20260505161604 | 71 | 186 | 5.2 | 10.4 | 0.00 | 0.00 | 0.00 | 88 | 1004.9 |
| 20260505161131 | 71 | 168 | 5.2 | 10.4 | 0.00 | 0.00 | 0.00 | 88 | 1004.8 |
| 20260505160231 | 71 | 170 | 5.2 | 9.6 | 0.00 | 0.00 | 0.00 | 88 | 1004.9 |
| 20260505153009 | 70 | 182 | 5.2 | 8.7 | 0.00 | 0.00 | 0.00 | 88 | 1005.2 |
| 20260505152631 | 70 | 163 | 4.3 | 7.0 | 0.00 | 0.00 | 0.00 | 89 | 1005.2 |
| 20260505151732 | 70 | 165 | 4.3 | 7.8 | 0.00 | 0.00 | 0.00 | 89 | 1005.5 |
| 20260505151512 | 69 | 136 | 3.5 | 7.0 | 0.00 | 0.00 | 0.00 | 89 | 1005.5 |
| 20260505150831 | 70 | 171 | 5.2 | 8.7 | 0.00 | 0.00 | 0.00 | 89 | 1005.5 |